Regional Weather Roundup
Issued by NWS

Home | Current Version | Previous Version | Text Only | Print | Product List | Glossary On
Versions: 1 2 3 4 5 6 7 8 9 10 11 12 13 14 15 16 17 18 19 20 21 22 23 24 25 26 27 28 29 30 31 32 33 34 35 36 37 38 39 40 41 42 43 44 45 46 47 48 49 50
000
ASUS43 KOAX 232303
RWRNE

WEATHER ROUNDUP FOR NEBRASKA
NATIONAL WEATHER SERVICE OMAHA NE
600 PM CDT SAT JUN 23 2018

NOTES: SATELLITE DATA IS BEING USED TO AUGMENT CLOUD COVER ABOVE
       12000 FEET.
       "FAIR" INDICATES FEW OR NO CLOUDS BELOW 12,000 FEET WITH NO
       SIGNIFICANT WEATHER AND/OR OBSTRUCTIONS TO VISIBILITY.


NEZ001>004-019>022-054>056-240000-
NEBRASKA PANHANDLE

CITY           SKY/WX    TMP DP  RH WIND       PRES   REMARKS
SCOTTSBLUFF    SUNNY     84  54  35 SE12      29.77F
ALLIANCE       SUNNY     81  47  30 SW6       29.77F
CHADRON        CLOUDY    79  53  40 N8        29.77R
GORDON         FAIR      82  46  28 NW13G18   29.78S
KIMBALL        SUNNY     83  40  22 S7        29.84S
SIDNEY         SUNNY     83  43  24 S5        29.80F
$$

NEZ057>060-069>072-079>082-240000-
SOUTHWEST NEBRASKA

CITY           SKY/WX    TMP DP  RH WIND       PRES   REMARKS
NORTH PLATTE   MOSUNNY   88  60  38 SW7       29.73F
IMPERIAL       SUNNY     87  50  27 S6        29.76F
LEXINGTON      MOSUNNY   88  55  32 SW8       29.74F
MCCOOK         MOSUNNY   83  60  45 S17G28    29.76F
OGALLALA       SUNNY     87  46  24 N3        29.75F
$$

NEZ005>010-023>029-035>040-094-240000-
NORTH CENTRAL NEBRASKA

CITY           SKY/WX    TMP DP  RH WIND       PRES   REMARKS
VALENTINE      SUNNY     85  55  35 NW9       29.72F
AINSWORTH      MOSUNNY   82  47  29 NW3G9     29.73F
BROKEN BOW     MOSUNNY   85  55  35 W8        29.73F
O`NEILL        SUNNY     85  59  41 W7        29.71S
ORD            MOSUNNY   83  61  47 SW8       29.70F
THEDFORD       SUNNY     86  49  27 W13       29.75S
$$

NEZ041-046>049-061>064-073>077-083>087-240000-
SOUTH CENTRAL NEBRASKA

CITY           SKY/WX    TMP DP  RH WIND       PRES   REMARKS
GRAND ISLAND   SUNNY     88  57  34 W10       29.73F
AURORA         MOSUNNY   84  57  39 CALM      29.73F
HASTINGS       SUNNY     85  61  44 SW8       29.75F
HEBRON         SUNNY     87  59  39 SW7       29.74F
HOLDREGE       SUNNY     85  57  38 SW8       29.75F
KEARNEY        SUNNY     86  60  41 S13       29.74F
YORK           SUNNY     82  63  51 S8        29.74F
$$

NEZ011>018-030>034-042>045-240000-
NORTHEAST NEBRASKA

CITY           SKY/WX    TMP DP  RH WIND       PRES   REMARKS
NORFOLK        MOSUNNY   78  66  66 SE13      29.70F
ALBION         PTSUNNY   87  60  40 CALM      29.71F
BLAIR          MOSUNNY   77  67  71 SE5       29.75F
COLUMBUS       CLOUDY    83  65  54 S9        29.72F
FREMONT        MOSUNNY   79  67  64 SE6       29.74F
TEKAMAH        MOSUNNY   77  67  71 SE9       29.73F
WAYNE          CLOUDY    75  73  92 SE3       29.73R
$$

NEZ050>053-065>068-078-088>093-240000-
SOUTHEAST NEBRASKA

CITY           SKY/WX    TMP DP  RH WIND       PRES   REMARKS
LINCOLN        SUNNY     87  61  41 SW8       29.74F
OMAHA EPPLEY   PTSUNNY   79  65  62 SE12      29.75F
BEATRICE       MOSUNNY   86  65  48 SW8       29.75S
FALLS CITY     SUNNY     83  66  56 E7        29.75F
NEBRASKA CITY  SUNNY     81  69  68 SE5       29.76S
PLATTSMOUTH    MOSUNNY   78  69  73 SE6       29.76S
$$

NEZ044-045-051>053-067-240000-
OMAHA AREA

CITY           SKY/WX    TMP DP  RH WIND       PRES   REMARKS
OMAHA EPPLEY   PTSUNNY   79  65  62 SE12      29.75F
BLAIR          MOSUNNY   77  67  71 SE5       29.75F
FREMONT        MOSUNNY   79  67  64 SE6       29.74F
MILLARD        MOSUNNY   81  70  68 SE8       29.75S
OFFUTT AFB     SUNNY     80  68  68 SE9       29.74F
PLATTSMOUTH    MOSUNNY   78  69  73 SE6       29.76S
WAHOO          FAIR      82  67  59 S9        29.73F
$$




USA.gov is the U.S. government's official web portal to all federal, state and local government web resources and services.